Volver al catálogo

TELSTAR 12V

ActivoComunicacionesGEO
NORAD 41036·PAYLOAD·🇨🇦 Canada

Lanzado Nov 24, 2015 desde Tanegashima Space Center

Loading…

TLE

ActualizadoSource: CelesTrak SupGP

Época: Sep 14, 2026, 04:59 UTC

1 41036C 15068A   26257.20833333 -.00000029  00000+0  00000+0 0  2578
2 41036   0.0126 116.6486 0002158  53.9025 242.6425  1.00271490    17

Sigue TELSTAR 12V en tiempo real con AllMySat

Download on the App Store